Change the Weather History Date:

Thursday, September 19, 2013

  Actual Average Record
Temperature  
Mean Temperature 52 °F 57 °F  
Max Temperature 64 °F 73 °F 93 °F (1981)
Min Temperature 40 °F 41 °F 26 °F (1965)
Degree Days  
Heating Degree Days 13 9  
Month to date heating degree days 34 99  
Since 1 July heating degree days 34 135  
Cooling Degree Days 0 0  
Month to date cooling degree days 90 28  
Year to date cooling degree days 851 534  
Growing Degree Days 2 (Base 50)    
Moisture  
Dew Point 39 °F    
Average Humidity 63    
Maximum Humidity 92    
Minimum Humidity 34    
Precipitation  
Precipitation 0.00 in 0.03 in 0.39 in (1985)
Month to date precipitation 0.91 0.49  
Year to date precipitation 4.12 5.94  
Sea Level Pressure  
Sea Level Pressure 30.10 in    
Wind  
Wind Speed 4 mph (ENE)    
Max Wind Speed 13 mph    
Max Gust Speed 22 mph    
Visibility 10 miles    
Events      
T = Trace of Precipitation, MM = Missing Value Source: NWS Daily Summary

Daily Weather History Graph

Daily Weather History Graph

Search for Another Location

Airport or City:

Trip Planner

Search our weather history database for the weather conditions in past years. The results will help you decide how hot, cold, wet, or windy it might be!

Date:

Astronomy

Sep. 19, 2013 Rise Set
Actual Time 6:55 AM MDT 7:14 PM MDT
Civil Twilight 6:27 AM MDT 7:42 PM MDT
Nautical Twilight 5:53 AM MDT 8:16 PM MDT
Astronomical Twilight 5:18 AM MDT 8:51 PM MDT
Moon 7:11 PM MDT (9/19) 7:10 AM MDT (9/19)
Length of Visible Light 13h 15m
Length of Day
12h 18m
Full, 100% of the Moon is Illuminated
Sep 19
Full
Sep 26
Last Quarter
Oct 4
New
Oct 11
First Quarter
Oct 18
Full

Hourly Weather History & Observations

Time (MDT) Temp. Windchill Dew Point Humidity Pressure Visibility Wind Dir Wind Speed Gust Speed Precip Events Conditions
12:53 AM 48.9 °F - 43.0 °F 80% 29.97 in 10.0 mi West 6.9 mph - N/A   Clear
1:53 AM 45.0 °F 42.6 °F 41.0 °F 86% 30.00 in 10.0 mi SSE 4.6 mph - N/A   Partly Cloudy
2:53 AM 43.0 °F 39.5 °F 39.9 °F 89% 30.01 in 10.0 mi South 5.8 mph - N/A   Clear
3:53 AM 42.1 °F 38.4 °F 39.0 °F 89% 30.02 in 10.0 mi South 5.8 mph - N/A   Clear
4:53 AM 43.0 °F - 39.9 °F 89% 30.04 in 10.0 mi Calm Calm - N/A   Clear
5:53 AM 42.1 °F 37.1 °F 39.0 °F 89% 30.07 in 10.0 mi South 8.1 mph - N/A   Clear
6:53 AM 39.9 °F 35.1 °F 37.9 °F 93% 30.10 in 10.0 mi South 6.9 mph - N/A   Clear
7:53 AM 45.0 °F - 39.9 °F 82% 30.11 in 10.0 mi Calm Calm - N/A   Clear
8:53 AM 48.0 °F - 41.0 °F 77% 30.12 in 10.0 mi Calm Calm - N/A   Clear
9:53 AM 52.0 °F - 42.1 °F 69% 30.13 in 10.0 mi NW 3.5 mph - N/A   Clear
10:53 AM 57.0 °F - 39.9 °F 53% 30.13 in 10.0 mi NW 6.9 mph - N/A   Clear
11:53 AM 59.0 °F - 37.9 °F 46% 30.13 in 10.0 mi NNE 10.4 mph 16.1 mph N/A   Clear
12:53 PM 61.0 °F - 39.0 °F 44% 30.12 in 10.0 mi NNE 6.9 mph - N/A   Clear
1:53 PM 61.0 °F - 37.9 °F 42% 30.12 in 10.0 mi NNE 5.8 mph - N/A   Clear
2:53 PM 62.1 °F - 34.0 °F 35% 30.12 in 10.0 mi North 6.9 mph - N/A   Clear
3:53 PM 63.0 °F - 35.1 °F 35% 30.12 in 10.0 mi Calm Calm - N/A   Clear
4:53 PM 64.0 °F - 35.1 °F 34% 30.10 in 10.0 mi North 3.5 mph - N/A   Clear
5:53 PM 63.0 °F - 35.1 °F 35% 30.11 in 10.0 mi NE 3.5 mph - N/A   Clear
6:53 PM 59.0 °F - 39.9 °F 49% 30.12 in 10.0 mi NNE 3.5 mph - N/A   Partly Cloudy
7:53 PM 55.0 °F - 39.9 °F 57% 30.12 in 10.0 mi East 4.6 mph - N/A   Mostly Cloudy
8:53 PM 52.0 °F - 41.0 °F 66% 30.14 in 10.0 mi Calm Calm - N/A   Scattered Clouds
9:53 PM 54.0 °F - 41.0 °F 62% 30.14 in 10.0 mi Calm Calm - N/A   Overcast
10:53 PM 51.1 °F - 41.0 °F 68% 30.13 in 10.0 mi SSE 4.6 mph - N/A   Partly Cloudy
11:53 PM 48.9 °F - 39.9 °F 71% 30.13 in 10.0 mi SE 4.6 mph - N/A   Clear